CW5715 Weather Reports


time (UTC)temp
F
wind
direction
speed
knots
gust
knots
rain 1hr
in
rain 24hr
in
rain mn
in
humidity
%
barometer
mb
20260504223004 80 21 0.9 4.3 0.00 0.32 0.00 52 1013.1
20260504222004 81 43 0.9 2.6 0.00 0.32 0.00 51 1013.2
20260504220505 84 74 0.9 1.7 0.00 0.32 0.00 45 1013.0
20260504215004 83 146 0.9 4.3 0.00 0.32 0.00 47 1013.0
20260504212504 84 1 1.7 2.6 0.00 0.32 0.00 45 1013.2
20260504211506 84 68 1.7 6.1 0.00 0.32 0.00 44 1013.2
20260504211005 86 111 1.7 7.0 0.00 0.32 0.00 43 1013.2
20260504205504 85 30 1.7 2.6 0.00 0.32 0.00 40 1013.1
20260504205004 86 184 0.9 2.6 0.00 0.32 0.00 43 1013.0
20260504204504 86 33 1.7 4.3 0.00 0.32 0.00 39 1013.1
20260504203005 87 237 0.9 2.6 0.00 0.32 0.00 39 1013.2
20260504202504 86 53 1.7 4.3 0.00 0.32 0.00 40 1013.3
20260504201504 85 195 1.7 4.3 0.00 0.32 0.00 42 1013.3
20260504200504 83 296 0.9 4.3 0.00 0.32 0.00 39 1013.5
20260504200004 84 257 1.7 5.2 0.00 0.32 0.00 42 1013.5
20260504195505 86 72 1.7 4.3 0.00 0.32 0.00 38 1013.8
20260504194504 85 37 2.6 4.3 0.00 0.32 0.00 38 1013.9
20260504193505 84 335 1.7 5.2 0.00 0.32 0.00 38 1014.0
20260504192506 85 47 2.6 7.0 0.00 0.32 0.00 35 1014.1
20260504192005 85 28 2.6 4.3 0.00 0.32 0.00 38 1014.1
20260504191504 86 357 1.7 2.6 0.00 0.32 0.00 38 1014.2
20260504190504 83 16 2.6 6.1 0.00 0.32 0.00 40 1014.5
20260504185005 84 78 1.7 6.1 0.00 0.32 0.00 38 1014.5
20260504184005 84 85 0.9 4.3 0.00 0.32 0.00 41 1014.9
20260504183004 85 76 2.6 6.1 0.00 0.32 0.00 38 1014.9
20260504182504 84 176 1.7 4.3 0.00 0.32 0.00 42 1015.3
20260504182006 81 41 1.7 4.3 0.00 0.32 0.00 43 1015.3
20260504180504 84 57 1.7 5.2 0.00 0.32 0.00 40 1015.4
20260504175504 84 40 2.6 7.0 0.00 0.32 0.00 41 1015.3
20260504174504 83 47 2.6 7.0 0.00 0.32 0.00 41 1015.4
20260504173504 82 50 2.6 6.1 0.00 0.32 0.00 41 1015.6
20260504173004 84 349 0.9 4.3 0.00 0.32 0.00 42 1015.5
20260504172505 83 35 0.9 7.0 0.00 0.32 0.00 43 1015.6
20260504171506 83 42 4.3 7.0 0.00 0.32 0.00 41 1015.7
20260504171006 83 70 2.6 5.2 0.00 0.32 0.00 43 1015.8
20260504170504 82 35 1.7 6.1 0.00 0.32 0.00 43 1015.9
20260504151003 79 66 3.5 6.1 0.00 0.32 0.00 50 1016.6
20260504150504 80 71 1.7 6.1 0.00 0.32 0.00 48 1016.5
20260504140505 76 33 2.6 6.1 0.00 0.32 0.00 55 1016.4